Wetterdaten: Montag, 26.03.2018
Datum Zeit Temp. A. Aussen2m Boden Feuchte A. Feuchte 2 Luftdruck Regen Wind Richtung Richtung Sonnenschein
26.03.2018 00:00 8,6 C 8,8 C 6,8 C 67 % 66 % 1009,8 hPa 0,0 l/m 4,2 km/h (1 Bft) N-NO 15 0 min
26.03.2018 00:05 8,6 C 8,8 C 6,8 C 67 % 67 % 1009,8 hPa 0,0 l/m 10,3 km/h (2 Bft) N-NO 25 0 min
26.03.2018 00:10 8,6 C 8,8 C 6,8 C 67 % 67 % 1009,8 hPa 0,0 l/m 10,3 km/h (2 Bft) N-NO 25 0 min
26.03.2018 00:15 8,6 C 8,7 C 6,8 C 67 % 67 % 1009,8 hPa 0,0 l/m 10,3 km/h (2 Bft) N-NO 25 0 min
26.03.2018 00:20 8,6 C 8,6 C 6,8 C 67 % 67 % 1009,8 hPa 0,0 l/m 10,3 km/h (2 Bft) N-NO 25 0 min
26.03.2018 00:25 8,3 C 8,5 C 6,8 C 67 % 67 % 1009,8 hPa 0,0 l/m 6,7 km/h (2 Bft) N 355 0 min
26.03.2018 00:30 8,3 C 8,4 C 6,8 C 67 % 68 % 1009,8 hPa 0,0 l/m 6,7 km/h (2 Bft) N 355 0 min
26.03.2018 00:35 8,0 C 8,4 C 6,8 C 69 % 68 % 1009,8 hPa 0,0 l/m 3,6 km/h (1 Bft) N-NO 30 0 min
26.03.2018 00:40 7,8 C 8,2 C 6,8 C 70 % 68 % 1009,8 hPa 0,0 l/m 2,4 km/h (1 Bft) N-NO 15 0 min
26.03.2018 00:45 7,6 C 8,1 C 6,8 C 71 % 69 % 1009,8 hPa 0,0 l/m 5,4 km/h (2 Bft) N-NO 15 0 min
26.03.2018 00:50 7,6 C 8,0 C 6,8 C 71 % 70 % 1009,8 hPa 0,0 l/m 5,4 km/h (2 Bft) N-NO 15 0 min
26.03.2018 00:55 7,6 C 8,0 C 6,8 C 71 % 70 % 1009,8 hPa 0,0 l/m 5,4 km/h (2 Bft) N-NO 15 0 min
26.03.2018 01:00 7,4 C 7,8 C 6,8 C 73 % 70 % 1009,8 hPa 0,0 l/m 1,8 km/h (1 Bft) N 355 0 min
26.03.2018 01:05 7,4 C 7,7 C 6,8 C 73 % 72 % 1009,8 hPa 0,0 l/m 1,8 km/h (1 Bft) N 355 0 min
26.03.2018 01:10 7,2 C 7,6 C 6,8 C 76 % 73 % 1009,8 hPa 0,0 l/m 6,1 km/h (2 Bft) N-NW 345 0 min
26.03.2018 01:15 7,1 C 7,6 C 6,8 C 76 % 74 % 1009,8 hPa 0,0 l/m 2,4 km/h (1 Bft) NO 35 0 min
26.03.2018 01:20 7,0 C 7,5 C 6,8 C 78 % 74 % 1009,8 hPa 0,0 l/m 1,8 km/h (1 Bft) N-NO 20 0 min
26.03.2018 01:25 7,0 C 7,4 C 6,8 C 78 % 75 % 1008,8 hPa 0,0 l/m 1,8 km/h (1 Bft) NW 315 0 min
26.03.2018 01:30 6,9 C 7,3 C 6,8 C 79 % 76 % 1008,8 hPa 0,0 l/m 3,6 km/h (1 Bft) N-NO 15 0 min
26.03.2018 01:35 7,0 C 7,3 C 6,8 C 80 % 76 % 1008,8 hPa 0,0 l/m 6,1 km/h (2 Bft) NO 45 0 min
26.03.2018 01:40 7,0 C 7,3 C 6,8 C 80 % 77 % 1008,8 hPa 0,0 l/m 6,1 km/h (2 Bft) N-NW 340 0 min
26.03.2018 01:45 7,0 C 7,3 C 6,8 C 80 % 77 % 1008,8 hPa 0,0 l/m 6,1 km/h (2 Bft) N-NW 340 0 min
26.03.2018 01:50 7,0 C 7,2 C 6,8 C 80 % 78 % 1008,8 hPa 0,0 l/m 6,1 km/h (2 Bft) N-NW 340 0 min
26.03.2018 01:55 6,8 C 7,1 C 6,8 C 81 % 78 % 1009,8 hPa 0,0 l/m 3,0 km/h (1 Bft) N-NO 25 0 min
26.03.2018 02:00 6,8 C 7,1 C 6,8 C 81 % 79 % 1009,8 hPa 0,0 l/m 3,0 km/h (1 Bft) N-NO 25 0 min
26.03.2018 02:05 6,8 C 7,1 C 6,8 C 82 % 79 % 1009,8 hPa 0,0 l/m 4,2 km/h (1 Bft) N-NO 20 0 min
26.03.2018 02:10 6,7 C 7,0 C 6,8 C 83 % 80 % 1009,8 hPa 0,0 l/m 4,2 km/h (1 Bft) N-NO 20 0 min
26.03.2018 02:15 6,6 C 7,0 C 6,8 C 83 % 80 % 1009,8 hPa 0,0 l/m 3,0 km/h (1 Bft) N 355 0 min
26.03.2018 02:20 6,6 C 6,9 C 6,8 C 83 % 80 % 1009,8 hPa 0,0 l/m 3,0 km/h (1 Bft) N 355 0 min
26.03.2018 02:25 6,6 C 6,8 C 6,8 C 83 % 80 % 1009,8 hPa 0,0 l/m 3,0 km/h (1 Bft) N 355 0 min
26.03.2018 02:30 6,4 C 6,7 C 6,8 C 84 % 80 % 1009,8 hPa 0,0 l/m 6,7 km/h (2 Bft) N-NO 30 0 min
26.03.2018 02:35 6,4 C 6,7 C 6,8 C 84 % 80 % 1009,8 hPa 0,0 l/m 3,6 km/h (1 Bft) N 0 0 min
26.03.2018 02:40 6,3 C 6,6 C 6,8 C 84 % 81 % 1009,8 hPa 0,0 l/m 1,2 km/h (1 Bft) N-NO 20 0 min
26.03.2018 02:45 6,3 C 6,5 C 6,8 C 84 % 81 % 1009,8 hPa 0,0 l/m 1,2 km/h (1 Bft) N-NO 20 0 min
26.03.2018 02:50 6,0 C 6,4 C 6,8 C 85 % 81 % 1009,8 hPa 0,0 l/m 4,2 km/h (1 Bft) N 5 0 min
26.03.2018 02:55 5,9 C 6,2 C 6,8 C 85 % 82 % 1009,8 hPa 0,0 l/m 2,4 km/h (1 Bft) NO 55 0 min
26.03.2018 03:00 5,9 C 6,2 C 6,8 C 85 % 82 % 1009,8 hPa 0,0 l/m 2,4 km/h (1 Bft) NO 55 0 min
26.03.2018 03:05 5,5 C 6,0 C 6,8 C 86 % 82 % 1009,8 hPa 0,0 l/m 2,4 km/h (1 Bft) N 355 0 min
26.03.2018 03:10 5,5 C 5,9 C 6,8 C 86 % 82 % 1009,8 hPa 0,0 l/m 2,4 km/h (1 Bft) N 355 0 min
26.03.2018 03:15 5,3 C 5,8 C 6,8 C 86 % 82 % 1009,8 hPa 0,0 l/m 4,2 km/h (1 Bft) NW 310 0 min
26.03.2018 03:20 5,3 C 5,7 C 6,8 C 86 % 83 % 1009,8 hPa 0,0 l/m 4,2 km/h (1 Bft) NW 310 0 min
26.03.2018 03:25 5,1 C 5,6 C 6,8 C 87 % 83 % 1010,8 hPa 0,0 l/m 2,4 km/h (1 Bft) N 5 0 min
26.03.2018 03:30 5,0 C 5,5 C 6,8 C 87 % 83 % 1010,8 hPa 0,0 l/m 3,0 km/h (1 Bft) N-NO 20 0 min
26.03.2018 03:35 5,0 C 5,4 C 6,8 C 87 % 83 % 1010,8 hPa 0,0 l/m 4,2 km/h (1 Bft) N 350 0 min
26.03.2018 03:40 5,0 C 5,4 C 6,8 C 87 % 83 % 1009,8 hPa 0,0 l/m 1,8 km/h (1 Bft) W-NW 300 0 min
26.03.2018 03:45 5,0 C 5,3 C 6,8 C 87 % 84 % 1009,8 hPa 0,0 l/m 2,4 km/h (1 Bft) W-NW 290 0 min
26.03.2018 03:50 5,0 C 5,3 C 6,8 C 87 % 84 % 1009,8 hPa 0,0 l/m 1,2 km/h (1 Bft) N 5 0 min
26.03.2018 03:55 5,0 C 5,3 C 6,8 C 87 % 84 % 1010,8 hPa 0,0 l/m 3,0 km/h (1 Bft) N-NO 15 0 min
26.03.2018 04:00 5,0 C 5,3 C 6,8 C 87 % 84 % 1010,8 hPa 0,0 l/m 1,2 km/h (1 Bft) W-NW 300 0 min
26.03.2018 04:05 4,9 C 5,2 C 6,8 C 87 % 84 % 1010,8 hPa 0,0 l/m 1,2 km/h (1 Bft) N 0 0 min
26.03.2018 04:10 4,8 C 5,1 C 6,8 C 87 % 84 % 1010,8 hPa 0,0 l/m 1,2 km/h (1 Bft) N-NW 330 0 min
26.03.2018 04:15 4,7 C 5,1 C 6,8 C 87 % 84 % 1010,8 hPa 0,0 l/m 1,8 km/h (1 Bft) N 355 0 min
26.03.2018 04:20 4,7 C 5,0 C 6,8 C 87 % 84 % 1010,8 hPa 0,0 l/m 1,8 km/h (1 Bft) N-NW 330 0 min
26.03.2018 04:25 4,6 C 4,9 C 6,8 C 87 % 84 % 1011,8 hPa 0,0 l/m 3,6 km/h (1 Bft) N 10 0 min
26.03.2018 04:30 4,6 C 4,9 C 6,8 C 87 % 84 % 1011,8 hPa 0,0 l/m 3,6 km/h (1 Bft) N 10 0 min
26.03.2018 04:35 4,5 C 4,9 C 6,8 C 88 % 84 % 1011,8 hPa 0,0 l/m 4,8 km/h (1 Bft) N-NW 335 0 min
26.03.2018 04:40 4,6 C 4,9 C 6,8 C 88 % 84 % 1010,8 hPa 0,0 l/m 3,6 km/h (1 Bft) NO 35 0 min
26.03.2018 04:45 4,6 C 4,8 C 6,8 C 88 % 84 % 1010,8 hPa 0,0 l/m 3,6 km/h (1 Bft) N 350 0 min
26.03.2018 04:50 4,6 C 4,8 C 6,8 C 88 % 85 % 1010,8 hPa 0,0 l/m 4,8 km/h (1 Bft) NO 45 0 min
26.03.2018 04:55 4,6 C 4,9 C 6,8 C 88 % 85 % 1010,8 hPa 0,0 l/m 3,6 km/h (1 Bft) NO 40 0 min
26.03.2018 05:00 4,6 C 4,8 C 6,8 C 88 % 85 % 1010,8 hPa 0,0 l/m 3,6 km/h (1 Bft) N 5 0 min
26.03.2018 05:05 4,5 C 4,8 C 6,8 C 88 % 85 % 1010,8 hPa 0,0 l/m 4,8 km/h (1 Bft) N 5 0 min
26.03.2018 05:10 4,5 C 4,8 C 6,8 C 88 % 85 % 1010,8 hPa 0,0 l/m 6,1 km/h (2 Bft) N 350 0 min
26.03.2018 05:15 4,4 C 4,7 C 6,8 C 88 % 85 % 1010,8 hPa 0,0 l/m 1,2 km/h (1 Bft) N-NO 25 0 min
26.03.2018 05:20 4,4 C 4,7 C 6,8 C 89 % 85 % 1010,8 hPa 0,0 l/m 2,4 km/h (1 Bft) NW 320 0 min
26.03.2018 05:25 4,4 C 4,7 C 6,8 C 89 % 85 % 1010,8 hPa 0,0 l/m 3,0 km/h (1 Bft) N-NO 25 0 min
26.03.2018 05:30 4,4 C 4,7 C 6,8 C 89 % 86 % 1010,8 hPa 0,0 l/m 3,6 km/h (1 Bft) NW 315 0 min
26.03.2018 05:35 4,4 C 4,7 C 6,8 C 89 % 86 % 1010,8 hPa 0,0 l/m 3,6 km/h (1 Bft) N-NO 15 0 min
26.03.2018 05:40 4,2 C 4,6 C 6,8 C 90 % 86 % 1010,8 hPa 0,0 l/m 6,1 km/h (2 Bft) N 5 0 min
26.03.2018 05:45 4,2 C 4,5 C 6,8 C 90 % 86 % 1010,8 hPa 0,0 l/m 6,1 km/h (2 Bft) N 5 0 min
26.03.2018 05:50 4,0 C 4,4 C 6,8 C 90 % 86 % 1010,9 hPa 0,0 l/m 2,4 km/h (1 Bft) O-NO 65 0 min
26.03.2018 05:55 4,0 C 4,4 C 6,8 C 90 % 86 % 1011,9 hPa 0,0 l/m 1,8 km/h (1 Bft) N-NW 340 0 min
26.03.2018 06:00 3,9 C 4,3 C 6,8 C 91 % 86 % 1011,9 hPa 0,0 l/m 1,8 km/h (1 Bft) N 10 0 min
26.03.2018 06:05 3,8 C 4,2 C 6,8 C 91 % 86 % 1011,9 hPa 0,0 l/m 2,4 km/h (1 Bft) N 10 0 min
26.03.2018 06:10 3,8 C 4,1 C 6,8 C 91 % 86 % 1011,9 hPa 0,0 l/m 1,8 km/h (1 Bft) N-NO 15 0 min
26.03.2018 06:15 3,7 C 4,0 C 6,8 C 91 % 86 % 1011,9 hPa 0,0 l/m 1,2 km/h (1 Bft) N 10 0 min
26.03.2018 06:20 3,6 C 4,0 C 6,8 C 92 % 87 % 1011,9 hPa 0,0 l/m 0,6 km/h (0 Bft) NW 310 0 min
26.03.2018 06:25 3,6 C 4,0 C 6,8 C 92 % 87 % 1011,9 hPa 0,0 l/m 1,2 km/h (1 Bft) N 5 0 min
26.03.2018 06:30 3,6 C 3,9 C 6,8 C 92 % 87 % 1011,9 hPa 0,0 l/m 0,0 km/h (0 Bft) NW 315 0 min
26.03.2018 06:35 3,6 C 4,0 C 6,8 C 92 % 88 % 1011,9 hPa 0,0 l/m 0,6 km/h (0 Bft) N 0 0 min
26.03.2018 06:40 3,6 C 3,9 C 6,8 C 93 % 88 % 1011,9 hPa 0,0 l/m 0,0 km/h (0 Bft) N-NW 335 0 min
26.03.2018 06:45 3,5 C 3,9 C 6,8 C 93 % 88 % 1011,9 hPa 0,0 l/m 0,0 km/h (0 Bft) N-NO 15 0 min
26.03.2018 06:50 3,6 C 3,9 C 6,8 C 93 % 88 % 1011,9 hPa 0,0 l/m 0,0 km/h (0 Bft) W-NW 295 0 min
26.03.2018 06:55 3,5 C 3,9 C 6,8 C 93 % 88 % 1011,9 hPa 0,0 l/m 0,0 km/h (0 Bft) NW 305 0 min
26.03.2018 07:00 3,5 C 3,8 C 6,8 C 93 % 88 % 1011,9 hPa 0,0 l/m 0,0 km/h (0 Bft) N 5 0 min
26.03.2018 07:05 3,3 C 3,8 C 6,8 C 93 % 88 % 1011,9 hPa 0,0 l/m 1,8 km/h (1 Bft) W-NW 300 0 min
26.03.2018 07:10 3,2 C 3,6 C 6,8 C 93 % 89 % 1011,9 hPa 0,0 l/m 1,2 km/h (1 Bft) NW 305 0 min
26.03.2018 07:15 3,2 C 3,5 C 6,8 C 94 % 89 % 1011,9 hPa 0,0 l/m 0,6 km/h (0 Bft) NW 305 0 min
26.03.2018 07:20 3,1 C 3,4 C 3,5 C 94 % 89 % 1011,9 hPa 0,0 l/m 1,2 km/h (1 Bft) N-NW 340 0 min
26.03.2018 07:25 3,1 C 3,3 C 3,5 C 94 % 89 % 1012,9 hPa 0,0 l/m 2,4 km/h (1 Bft) NW 305 0 min
26.03.2018 07:30 3,1 C 3,2 C 3,5 C 94 % 90 % 1012,9 hPa 0,0 l/m 4,8 km/h (1 Bft) N 5 0 min
26.03.2018 07:35 3,1 C 3,1 C 3,5 C 95 % 91 % 1012,9 hPa 0,0 l/m 3,6 km/h (1 Bft) W-NW 285 0 min
26.03.2018 07:40 3,1 C 3,2 C 3,5 C 95 % 91 % 1012,9 hPa 0,0 l/m 2,4 km/h (1 Bft) NW 310 0 min
26.03.2018 07:45 3,1 C 3,2 C 3,5 C 95 % 91 % 1012,9 hPa 0,0 l/m 1,2 km/h (1 Bft) NW 305 0 min
26.03.2018 07:50 3,0 C 3,1 C 3,5 C 95 % 91 % 1012,9 hPa 0,0 l/m 2,4 km/h (1 Bft) W-NW 290 0 min
26.03.2018 07:55 2,9 C 3,1 C 3,5 C 95 % 92 % 1011,9 hPa 0,0 l/m 1,2 km/h (1 Bft) N 5 0 min
26.03.2018 08:00 3,1 C 3,2 C 3,5 C 95 % 92 % 1011,9 hPa 0,0 l/m 0,6 km/h (0 Bft) N-NO 30 0 min
26.03.2018 08:05 3,1 C 3,2 C 3,5 C 96 % 92 % 1011,9 hPa 0,0 l/m 4,8 km/h (1 Bft) NW 310 0 min
26.03.2018 08:10 2,8 C 3,1 C 3,5 C 96 % 92 % 1012,9 hPa 0,0 l/m 2,4 km/h (1 Bft) NW 325 0 min
26.03.2018 08:15 2,8 C 3,0 C 3,5 C 96 % 92 % 1012,9 hPa 0,0 l/m 1,2 km/h (1 Bft) W-NW 295 0 min
26.03.2018 08:20 2,8 C 3,0 C 3,5 C 96 % 92 % 1012,9 hPa 0,0 l/m 2,4 km/h (1 Bft) W-NW 300 0 min
26.03.2018 08:25 2,9 C 3,0 C 3,5 C 96 % 93 % 1013,9 hPa 0,0 l/m 2,4 km/h (1 Bft) NW 325 0 min
26.03.2018 08:30 2,8 C 3,0 C 3,5 C 96 % 93 % 1013,9 hPa 0,0 l/m 1,8 km/h (1 Bft) S-SO 165 0 min
26.03.2018 08:35 2,8 C 3,0 C 3,5 C 96 % 93 % 1013,9 hPa 0,0 l/m 1,8 km/h (1 Bft) S-SO 165 0 min
26.03.2018 08:40 2,8 C 3,0 C 3,5 C 96 % 93 % 1012,9 hPa 0,0 l/m 3,6 km/h (1 Bft) W-NW 285 0 min
26.03.2018 08:45 2,7 C 2,9 C 3,5 C 96 % 93 % 1012,9 hPa 0,0 l/m 5,4 km/h (2 Bft) W-NW 285 0 min
26.03.2018 08:50 2,6 C 2,8 C 3,7 C 96 % 93 % 1012,9 hPa 0,0 l/m 4,8 km/h (1 Bft) W 265 2 min
26.03.2018 08:55 2,7 C 2,9 C 3,9 C 96 % 93 % 1013,9 hPa 0,0 l/m 4,8 km/h (1 Bft) N-NW 340 5 min
26.03.2018 09:00 2,9 C 2,9 C 3,9 C 96 % 93 % 1013,9 hPa 0,0 l/m 6,1 km/h (2 Bft) W 280 4 min
26.03.2018 09:05 2,9 C 2,9 C 3,9 C 96 % 93 % 1013,9 hPa 0,0 l/m 6,1 km/h (2 Bft) NW 315 5 min
26.03.2018 09:10 3,0 C 3,0 C 3,9 C 96 % 93 % 1012,9 hPa 0,0 l/m 7,9 km/h (2 Bft) NW 305 4 min
26.03.2018 09:15 3,1 C 2,9 C 4,3 C 96 % 93 % 1012,9 hPa 0,0 l/m 5,4 km/h (2 Bft) W-NW 290 5 min
26.03.2018 09:20 3,3 C 3,1 C 4,3 C 96 % 94 % 1012,9 hPa 0,0 l/m 6,1 km/h (2 Bft) N 355 5 min
26.03.2018 09:25 3,6 C 3,3 C 4,3 C 96 % 94 % 1012,9 hPa 0,0 l/m 8,5 km/h (2 Bft) W-NW 295 5 min
26.03.2018 09:30 3,6 C 3,3 C 4,3 C 96 % 94 % 1012,9 hPa 0,0 l/m 6,7 km/h (2 Bft) NW 320 3 min
26.03.2018 09:35 3,9 C 3,5 C 4,3 C 94 % 94 % 1012,9 hPa 0,0 l/m 7,3 km/h (2 Bft) W 265 7 min
26.03.2018 09:40 3,9 C 3,6 C 4,3 C 94 % 94 % 1013,9 hPa 0,0 l/m 9,7 km/h (2 Bft) W-NW 300 3 min
26.03.2018 09:45 3,4 C 3,5 C 4,3 C 93 % 93 % 1013,9 hPa 0,0 l/m 10,3 km/h (2 Bft) W-NW 295 4 min
26.03.2018 09:50 3,5 C 3,5 C 4,3 C 94 % 93 % 1013,9 hPa 0,0 l/m 7,3 km/h (2 Bft) NW 310 2 min
26.03.2018 09:55 3,5 C 3,4 C 4,3 C 94 % 92 % 1013,9 hPa 0,0 l/m 9,1 km/h (2 Bft) W 280 6 min
26.03.2018 10:00 3,6 C 3,5 C 4,3 C 94 % 93 % 1013,9 hPa 0,0 l/m 11,5 km/h (2 Bft) NW 305 4 min
26.03.2018 10:05 3,4 C 3,4 C 4,3 C 94 % 92 % 1013,9 hPa 0,0 l/m 15,1 km/h (3 Bft) W-NW 285 5 min
26.03.2018 10:10 3,6 C 3,5 C 4,3 C 94 % 93 % 1013,9 hPa 0,0 l/m 10,9 km/h (2 Bft) W-NW 300 4 min
26.03.2018 10:15 3,6 C 3,5 C 4,7 C 94 % 92 % 1013,9 hPa 0,0 l/m 9,1 km/h (2 Bft) W-NW 300 6 min
26.03.2018 10:20 3,9 C 3,6 C 4,5 C 93 % 92 % 1013,9 hPa 0,0 l/m 7,9 km/h (2 Bft) W 280 5 min
26.03.2018 10:25 3,9 C 3,6 C 4,5 C 93 % 92 % 1012,9 hPa 0,0 l/m 9,7 km/h (2 Bft) W-NW 300 4 min
26.03.2018 10:30 4,1 C 3,8 C 4,5 C 92 % 92 % 1012,9 hPa 0,0 l/m 9,1 km/h (2 Bft) NW 315 5 min
26.03.2018 10:35 4,4 C 3,9 C 4,5 C 91 % 92 % 1012,9 hPa 0,0 l/m 10,3 km/h (2 Bft) NW 305 5 min
26.03.2018 10:40 4,7 C 4,1 C 4,5 C 90 % 91 % 1013,9 hPa 0,0 l/m 9,7 km/h (2 Bft) W-NW 290 6 min
26.03.2018 10:45 4,9 C 4,2 C 4,5 C 90 % 90 % 1013,9 hPa 0,0 l/m 6,7 km/h (2 Bft) W-NW 290 5 min
26.03.2018 10:50 4,9 C 4,4 C 4,5 C 89 % 91 % 1013,9 hPa 0,0 l/m 13,9 km/h (3 Bft) W 275 5 min
26.03.2018 10:55 5,0 C 4,4 C 4,5 C 88 % 90 % 1014,9 hPa 0,0 l/m 12,1 km/h (2 Bft) N-NW 340 5 min
26.03.2018 11:00 5,2 C 4,6 C 4,7 C 88 % 90 % 1014,9 hPa 0,0 l/m 9,1 km/h (2 Bft) NW 305 5 min
26.03.2018 11:05 5,3 C 4,7 C 4,7 C 87 % 89 % 1014,9 hPa 0,0 l/m 7,9 km/h (2 Bft) W 275 5 min
26.03.2018 11:10 5,4 C 4,7 C 4,7 C 87 % 89 % 1013,9 hPa 0,0 l/m 7,9 km/h (2 Bft) W-NW 295 6 min
26.03.2018 11:15 5,7 C 4,9 C 4,7 C 86 % 89 % 1013,9 hPa 0,0 l/m 6,1 km/h (2 Bft) W-NW 295 5 min
26.03.2018 11:20 5,6 C 5,1 C 4,7 C 86 % 87 % 1013,9 hPa 0,0 l/m 7,3 km/h (2 Bft) W-NW 290 2 min
26.03.2018 11:25 6,3 C 5,3 C 4,7 C 85 % 88 % 1013,8 hPa 0,0 l/m 12,1 km/h (2 Bft) NW 305 8 min
26.03.2018 11:30 6,3 C 5,5 C 4,7 C 84 % 87 % 1013,8 hPa 0,0 l/m 9,7 km/h (2 Bft) W-NW 290 5 min
26.03.2018 11:35 6,6 C 5,9 C 4,7 C 83 % 86 % 1013,8 hPa 0,0 l/m 9,1 km/h (2 Bft) N 0 3 min
26.03.2018 11:40 6,9 C 6,2 C 4,7 C 82 % 84 % 1013,8 hPa 0,0 l/m 9,7 km/h (2 Bft) W-NW 295 7 min
26.03.2018 11:45 7,3 C 6,3 C 4,7 C 81 % 84 % 1013,8 hPa 0,0 l/m 10,9 km/h (2 Bft) W-NW 290 5 min
26.03.2018 11:50 7,4 C 6,6 C 5,1 C 81 % 84 % 1013,8 hPa 0,0 l/m 9,1 km/h (2 Bft) W 280 5 min
26.03.2018 11:55 7,5 C 6,8 C 5,1 C 80 % 83 % 1013,8 hPa 0,0 l/m 9,7 km/h (2 Bft) NW 310 3 min
26.03.2018 12:00 7,9 C 6,9 C 5,1 C 79 % 82 % 1013,8 hPa 0,0 l/m 16,3 km/h (3 Bft) W-NW 285 7 min
26.03.2018 12:05 7,9 C 7,2 C 5,1 C 77 % 81 % 1013,8 hPa 0,0 l/m 12,7 km/h (3 Bft) NW 320 5 min
26.03.2018 12:10 8,3 C 7,6 C 5,1 C 76 % 79 % 1013,8 hPa 0,0 l/m 13,3 km/h (3 Bft) W-NW 300 5 min
26.03.2018 12:15 8,1 C 7,6 C 5,1 C 75 % 78 % 1013,8 hPa 0,0 l/m 15,7 km/h (3 Bft) W-SW 245 5 min
26.03.2018 12:20 8,2 C 7,7 C 5,1 C 75 % 77 % 1013,8 hPa 0,0 l/m 15,1 km/h (3 Bft) W-NW 295 5 min
26.03.2018 12:25 8,3 C 7,8 C 5,1 C 75 % 77 % 1013,8 hPa 0,0 l/m 18,8 km/h (3 Bft) N-NW 330 2 min
26.03.2018 12:30 8,2 C 8,0 C 5,1 C 74 % 75 % 1013,8 hPa 0,0 l/m 20,0 km/h (4 Bft) NW 320 6 min
26.03.2018 12:35 8,6 C 8,1 C 5,1 C 74 % 76 % 1013,8 hPa 0,0 l/m 20,6 km/h (4 Bft) W-NW 300 7 min
26.03.2018 12:40 8,4 C 8,2 C 5,1 C 73 % 75 % 1013,8 hPa 0,0 l/m 21,2 km/h (4 Bft) W-NW 300 3 min
26.03.2018 12:45 8,4 C 8,2 C 5,1 C 73 % 75 % 1013,8 hPa 0,0 l/m 15,7 km/h (3 Bft) N-NW 335 5 min
26.03.2018 12:50 8,2 C 8,2 C 5,1 C 73 % 75 % 1013,8 hPa 0,0 l/m 20,6 km/h (4 Bft) NW 310 5 min
26.03.2018 12:55 8,5 C 8,3 C 5,1 C 74 % 76 % 1013,8 hPa 0,0 l/m 19,4 km/h (3 Bft) W 265 6 min
26.03.2018 13:00 8,3 C 8,3 C 5,1 C 73 % 74 % 1013,8 hPa 0,0 l/m 20,6 km/h (4 Bft) NW 310 4 min
26.03.2018 13:05 8,4 C 8,4 C 5,1 C 72 % 74 % 1013,8 hPa 0,0 l/m 19,4 km/h (3 Bft) NW 305 6 min
26.03.2018 13:10 8,6 C 8,6 C 5,1 C 71 % 73 % 1013,8 hPa 0,0 l/m 21,8 km/h (4 Bft) W-NW 290 4 min
26.03.2018 13:15 8,9 C 8,7 C 5,1 C 71 % 73 % 1013,8 hPa 0,0 l/m 21,2 km/h (4 Bft) W 265 6 min
26.03.2018 13:20 8,4 C 8,6 C 5,1 C 70 % 72 % 1013,8 hPa 0,0 l/m 19,4 km/h (3 Bft) W-NW 290 5 min
26.03.2018 13:25 8,5 C 8,6 C 5,1 C 70 % 72 % 1013,8 hPa 0,0 l/m 21,8 km/h (4 Bft) W 280 5 min
26.03.2018 13:30 8,6 C 8,7 C 5,1 C 70 % 72 % 1013,8 hPa 0,0 l/m 21,2 km/h (4 Bft) W-NW 285 5 min
26.03.2018 13:35 8,7 C 8,8 C 5,1 C 69 % 71 % 1013,8 hPa 0,0 l/m 19,4 km/h (3 Bft) NW 320 5 min
26.03.2018 13:40 8,6 C 8,7 C 5,1 C 69 % 71 % 1014,8 hPa 0,0 l/m 16,3 km/h (3 Bft) NW 310 5 min
26.03.2018 13:45 8,7 C 8,7 C 5,1 C 69 % 70 % 1014,8 hPa 0,0 l/m 18,8 km/h (3 Bft) W 270 5 min
26.03.2018 13:50 8,9 C 8,8 C 5,1 C 68 % 68 % 1014,8 hPa 0,0 l/m 10,9 km/h (2 Bft) W-NW 300 5 min
26.03.2018 13:55 9,0 C 8,9 C 5,1 C 69 % 70 % 1013,8 hPa 0,0 l/m 16,9 km/h (3 Bft) W-NW 285 4 min
26.03.2018 14:00 9,0 C 8,9 C 5,1 C 66 % 68 % 1013,8 hPa 0,0 l/m 21,8 km/h (4 Bft) W 275 6 min
26.03.2018 14:05 9,2 C 9,0 C 5,1 C 66 % 68 % 1013,8 hPa 0,0 l/m 16,3 km/h (3 Bft) NW 325 4 min
26.03.2018 14:10 9,5 C 9,3 C 5,1 C 64 % 67 % 1013,8 hPa 0,0 l/m 17,6 km/h (3 Bft) W-SW 245 6 min
26.03.2018 14:15 9,5 C 9,3 C 5,1 C 65 % 67 % 1013,8 hPa 0,0 l/m 26,0 km/h (4 Bft) NW 305 4 min
26.03.2018 14:20 9,7 C 9,3 C 5,1 C 63 % 66 % 1013,8 hPa 0,0 l/m 7,9 km/h (2 Bft) NW 315 5 min
26.03.2018 14:25 9,8 C 9,6 C 5,1 C 62 % 65 % 1013,8 hPa 0,0 l/m 15,1 km/h (3 Bft) W-NW 285 5 min
26.03.2018 14:30 9,7 C 9,6 C 7,3 C 60 % 63 % 1013,8 hPa 0,0 l/m 21,8 km/h (4 Bft) NW 310 5 min
26.03.2018 14:35 10,0 C 9,7 C 7,3 C 60 % 64 % 1013,8 hPa 0,0 l/m 16,9 km/h (3 Bft) W 275 2 min
26.03.2018 14:40 10,3 C 9,9 C 7,3 C 61 % 65 % 1013,8 hPa 0,0 l/m 12,1 km/h (2 Bft) W 270 6 min
26.03.2018 14:45 10,4 C 10,0 C 7,3 C 61 % 63 % 1013,8 hPa 0,0 l/m 17,6 km/h (3 Bft) N 350 3 min
26.03.2018 14:50 10,3 C 10,0 C 7,3 C 58 % 61 % 1013,8 hPa 0,0 l/m 15,1 km/h (3 Bft) W-SW 240 7 min
26.03.2018 14:55 10,1 C 10,1 C 7,3 C 58 % 63 % 1013,8 hPa 0,0 l/m 20,0 km/h (4 Bft) W 275 3 min
26.03.2018 15:00 10,0 C 9,9 C 7,3 C 59 % 61 % 1013,8 hPa 0,0 l/m 16,9 km/h (3 Bft) N-NW 335 5 min
26.03.2018 15:05 10,1 C 10,2 C 7,3 C 59 % 63 % 1013,8 hPa 0,0 l/m 16,9 km/h (3 Bft) NW 320 7 min
26.03.2018 15:10 10,5 C 10,3 C 7,3 C 57 % 60 % 1013,8 hPa 0,0 l/m 17,6 km/h (3 Bft) W-NW 295 5 min
26.03.2018 15:15 10,7 C 10,4 C 7,3 C 56 % 59 % 1013,8 hPa 0,0 l/m 17,6 km/h (3 Bft) O-NO 65 3 min
26.03.2018 15:20 10,7 C 10,4 C 7,3 C 58 % 62 % 1013,8 hPa 0,0 l/m 20,0 km/h (4 Bft) W-NW 285 7 min
26.03.2018 15:25 10,4 C 10,3 C 7,3 C 56 % 61 % 1013,8 hPa 0,0 l/m 15,1 km/h (3 Bft) N-NW 335 3 min
26.03.2018 15:30 10,7 C 10,4 C 7,3 C 56 % 60 % 1013,8 hPa 0,0 l/m 12,7 km/h (3 Bft) S-SW 210 5 min
26.03.2018 15:35 10,2 C 10,2 C 7,3 C 57 % 60 % 1013,8 hPa 0,0 l/m 13,3 km/h (3 Bft) W-NW 285 4 min
26.03.2018 15:40 10,6 C 10,3 C 7,3 C 54 % 58 % 1012,8 hPa 0,0 l/m 14,5 km/h (3 Bft) W-NW 290 8 min
26.03.2018 15:45 10,6 C 10,4 C 7,3 C 53 % 57 % 1012,8 hPa 0,0 l/m 18,8 km/h (3 Bft) N-NW 345 5 min
26.03.2018 15:50 10,8 C 10,6 C 7,3 C 53 % 58 % 1012,8 hPa 0,0 l/m 10,3 km/h (2 Bft) W-SW 250 3 min
26.03.2018 15:55 10,8 C 10,5 C 7,3 C 54 % 57 % 1013,8 hPa 0,0 l/m 23,0 km/h (4 Bft) W-NW 295 5 min
26.03.2018 16:00 11,0 C 10,6 C 7,3 C 54 % 59 % 1013,8 hPa 0,0 l/m 14,5 km/h (3 Bft) NW 320 5 min
26.03.2018 16:05 11,0 C 10,7 C 7,3 C 55 % 59 % 1013,8 hPa 0,0 l/m 16,3 km/h (3 Bft) NW 305 5 min
26.03.2018 16:10 11,7 C 10,9 C 7,3 C 52 % 57 % 1013,8 hPa 0,0 l/m 30,9 km/h (5 Bft) W-SW 245 5 min
26.03.2018 16:15 11,7 C 11,0 C 7,3 C 50 % 55 % 1013,8 hPa 0,0 l/m 14,5 km/h (3 Bft) W 260 5 min
26.03.2018 16:20 11,3 C 11,0 C 7,3 C 53 % 58 % 1013,8 hPa 0,0 l/m 21,2 km/h (4 Bft) W 270 6 min
26.03.2018 16:25 11,4 C 10,9 C 7,3 C 51 % 55 % 1013,8 hPa 0,0 l/m 14,5 km/h (3 Bft) N 5 4 min
26.03.2018 16:30 11,3 C 11,0 C 7,3 C 51 % 56 % 1013,8 hPa 0,0 l/m 18,8 km/h (3 Bft) W-NW 290 4 min
26.03.2018 16:35 11,6 C 11,0 C 7,3 C 50 % 54 % 1013,8 hPa 0,0 l/m 18,2 km/h (3 Bft) NW 315 6 min
26.03.2018 16:40 10,8 C 10,7 C 7,3 C 52 % 58 % 1013,8 hPa 0,0 l/m 21,2 km/h (4 Bft) NW 305 4 min
26.03.2018 16:45 11,0 C 10,8 C 7,3 C 53 % 58 % 1013,8 hPa 0,0 l/m 16,9 km/h (3 Bft) W-NW 290 5 min
26.03.2018 16:50 11,1 C 10,8 C 7,3 C 52 % 57 % 1013,8 hPa 0,0 l/m 12,1 km/h (2 Bft) NW 310 5 min
26.03.2018 16:55 11,3 C 11,0 C 7,3 C 53 % 59 % 1013,8 hPa 0,0 l/m 15,1 km/h (3 Bft) W 275 5 min
26.03.2018 17:00 11,2 C 11,0 C 7,3 C 53 % 58 % 1013,8 hPa 0,0 l/m 25,4 km/h (4 Bft) NO 45 4 min
26.03.2018 17:05 11,5 C 11,0 C 7,3 C 52 % 57 % 1013,8 hPa 0,0 l/m 15,7 km/h (3 Bft) W-NW 300 6 min
26.03.2018 17:10 11,3 C 10,9 C 7,3 C 51 % 56 % 1013,8 hPa 0,0 l/m 12,1 km/h (2 Bft) W-NW 285 5 min
26.03.2018 17:15 11,4 C 10,8 C 7,3 C 50 % 55 % 1013,8 hPa 0,0 l/m 15,7 km/h (3 Bft) N-NW 340 5 min
26.03.2018 17:20 11,5 C 10,9 C 7,3 C 50 % 55 % 1013,8 hPa 0,0 l/m 9,1 km/h (2 Bft) W-NW 295 5 min
26.03.2018 17:25 11,2 C 10,9 C 7,3 C 49 % 54 % 1013,8 hPa 0,0 l/m 13,9 km/h (3 Bft) O 95 5 min
26.03.2018 17:30 11,3 C 10,9 C 7,3 C 49 % 54 % 1013,8 hPa 0,0 l/m 12,7 km/h (3 Bft) N-NO 15 4 min
26.03.2018 17:35 11,3 C 10,9 C 7,3 C 50 % 54 % 1013,8 hPa 0,0 l/m 6,7 km/h (2 Bft) NW 310 5 min
26.03.2018 17:40 11,6 C 11,0 C 7,3 C 48 % 53 % 1012,8 hPa 0,0 l/m 9,1 km/h (2 Bft) W 260 6 min
26.03.2018 17:45 11,6 C 11,0 C 7,3 C 49 % 54 % 1012,8 hPa 0,0 l/m 10,9 km/h (2 Bft) W-NW 295 5 min
26.03.2018 17:50 11,7 C 11,1 C 7,3 C 50 % 56 % 1012,8 hPa 0,0 l/m 10,9 km/h (2 Bft) NO 55 5 min
26.03.2018 17:55 11,6 C 11,1 C 7,3 C 49 % 55 % 1013,8 hPa 0,0 l/m 9,7 km/h (2 Bft) W 275 5 min
26.03.2018 18:00 11,2 C 11,0 C 7,3 C 51 % 55 % 1013,8 hPa 0,0 l/m 10,9 km/h (2 Bft) W 280 1 min
26.03.2018 18:05 10,6 C 10,6 C 7,3 C 54 % 59 % 1013,8 hPa 0,0 l/m 15,7 km/h (3 Bft) W-NW 290 0 min
26.03.2018 18:10 10,3 C 10,4 C 7,3 C 55 % 59 % 1013,8 hPa 0,0 l/m 10,3 km/h (2 Bft) W 270 0 min
26.03.2018 18:15 10,1 C 10,2 C 7,3 C 54 % 59 % 1013,8 hPa 0,0 l/m 13,9 km/h (3 Bft) W-NW 290 0 min
26.03.2018 18:20 10,0 C 10,1 C 7,3 C 55 % 59 % 1013,8 hPa 0,0 l/m 13,9 km/h (3 Bft) NW 305 0 min
26.03.2018 18:25 9,9 C 10,0 C 7,3 C 56 % 60 % 1013,8 hPa 0,0 l/m 13,3 km/h (3 Bft) W-NW 300 0 min
26.03.2018 18:30 9,8 C 9,9 C 7,3 C 57 % 60 % 1013,8 hPa 0,0 l/m 12,1 km/h (2 Bft) SO 125 0 min
26.03.2018 18:35 9,8 C 9,8 C 7,3 C 56 % 61 % 1013,8 hPa 0,0 l/m 8,5 km/h (2 Bft) W-NW 300 0 min
26.03.2018 18:40 9,7 C 9,8 C 7,3 C 57 % 62 % 1013,8 hPa 0,0 l/m 9,7 km/h (2 Bft) W 275 0 min
26.03.2018 18:45 9,8 C 9,8 C 7,3 C 57 % 62 % 1013,8 hPa 0,0 l/m 6,7 km/h (2 Bft) W 275 0 min
26.03.2018 18:50 9,7 C 9,8 C 7,3 C 58 % 62 % 1013,8 hPa 0,0 l/m 10,9 km/h (2 Bft) W-NW 295 0 min
26.03.2018 18:55 9,7 C 9,8 C 7,3 C 57 % 61 % 1013,8 hPa 0,0 l/m 10,3 km/h (2 Bft) W-NW 300 0 min
26.03.2018 19:00 9,6 C 9,6 C 7,3 C 58 % 63 % 1013,8 hPa 0,0 l/m 6,1 km/h (2 Bft) W-NW 295 0 min
26.03.2018 19:05 9,7 C 9,6 C 7,3 C 56 % 61 % 1013,8 hPa 0,0 l/m 9,1 km/h (2 Bft) W-NW 295 0 min
26.03.2018 19:10 9,6 C 9,6 C 7,3 C 58 % 61 % 1013,8 hPa 0,0 l/m 4,8 km/h (1 Bft) SW 230 0 min
26.03.2018 19:15 9,6 C 9,6 C 7,3 C 57 % 62 % 1013,8 hPa 0,0 l/m 4,8 km/h (1 Bft) S-SW 200 0 min
26.03.2018 19:20 9,6 C 9,6 C 7,3 C 57 % 62 % 1013,8 hPa 0,0 l/m 3,0 km/h (1 Bft) W 280 0 min
26.03.2018 19:25 9,5 C 9,6 C 7,3 C 59 % 63 % 1013,8 hPa 0,0 l/m 3,0 km/h (1 Bft) W-NW 295 0 min
26.03.2018 19:30 9,4 C 9,4 C 7,3 C 59 % 64 % 1013,8 hPa 0,0 l/m 3,0 km/h (1 Bft) W-NW 290 0 min
26.03.2018 19:35 9,4 C 9,3 C 7,3 C 59 % 63 % 1013,8 hPa 0,0 l/m 3,0 km/h (1 Bft) W 275 0 min
26.03.2018 19:40 9,4 C 9,3 C 7,3 C 58 % 64 % 1013,8 hPa 0,0 l/m 3,0 km/h (1 Bft) W 265 0 min
26.03.2018 19:45 9,2 C 9,2 C 7,3 C 61 % 65 % 1013,8 hPa 0,0 l/m 1,8 km/h (1 Bft) W-NW 285 0 min
26.03.2018 19:50 9,3 C 9,1 C 7,3 C 59 % 65 % 1013,8 hPa 0,0 l/m 4,8 km/h (1 Bft) W-NW 290 0 min
26.03.2018 19:55 9,2 C 9,1 C 7,3 C 60 % 64 % 1013,8 hPa 0,0 l/m 9,7 km/h (2 Bft) W 265 0 min
26.03.2018 20:00 9,4 C 9,1 C 7,3 C 54 % 59 % 1013,8 hPa 0,0 l/m 7,9 km/h (2 Bft) W-NW 300 0 min
26.03.2018 20:05 9,4 C 9,2 C 7,3 C 55 % 60 % 1013,8 hPa 0,0 l/m 7,9 km/h (2 Bft) NW 325 0 min
26.03.2018 20:10 9,4 C 9,3 C 7,3 C 56 % 60 % 1013,8 hPa 0,0 l/m 0,6 km/h (0 Bft) W-NW 290 0 min
26.03.2018 20:15 9,4 C 9,3 C 7,3 C 55 % 59 % 1013,8 hPa 0,0 l/m 3,0 km/h (1 Bft) S-SO 150 0 min
26.03.2018 20:20 9,4 C 9,3 C 7,3 C 54 % 59 % 1013,8 hPa 0,0 l/m 6,1 km/h (2 Bft) W-SW 255 0 min
26.03.2018 20:25 9,4 C 9,3 C 7,3 C 55 % 59 % 1013,8 hPa 0,0 l/m 12,1 km/h (2 Bft) S-SW 210 0 min
26.03.2018 20:30 9,3 C 9,3 C 7,3 C 56 % 59 % 1013,8 hPa 0,0 l/m 9,7 km/h (2 Bft) N-NO 30 0 min
26.03.2018 20:35 9,1 C 9,1 C 7,3 C 58 % 62 % 1013,8 hPa 0,0 l/m 13,9 km/h (3 Bft) N-NO 15 0 min
26.03.2018 20:40 8,8 C 8,9 C 7,3 C 59 % 62 % 1013,8 hPa 0,0 l/m 22,4 km/h (4 Bft) W-SW 240 0 min
26.03.2018 20:45 8,6 C 8,9 C 7,3 C 61 % 64 % 1013,8 hPa 0,0 l/m 10,9 km/h (2 Bft) W 260 0 min
26.03.2018 20:50 8,0 C 8,5 C 7,3 C 67 % 68 % 1013,8 hPa 0,0 l/m 7,3 km/h (2 Bft) W 270 0 min
26.03.2018 20:55 7,8 C 8,3 C 7,3 C 69 % 69 % 1014,8 hPa 0,0 l/m 7,9 km/h (2 Bft) SW 220 0 min
26.03.2018 21:00 7,9 C 8,2 C 7,3 C 69 % 70 % 1014,8 hPa 0,0 l/m 6,7 km/h (2 Bft) W 265 0 min
26.03.2018 21:05 7,9 C 8,1 C 7,3 C 70 % 72 % 1014,8 hPa 0,0 l/m 16,9 km/h (3 Bft) SW 230 0 min
26.03.2018 21:10 7,8 C 8,0 C 7,3 C 71 % 72 % 1013,8 hPa 0,0 l/m 15,7 km/h (3 Bft) SW 230 0 min
26.03.2018 21:15 7,7 C 8,0 C 6,4 C 72 % 73 % 1013,8 hPa 0,0 l/m 16,9 km/h (3 Bft) SW 230 0 min
26.03.2018 21:20 7,4 C 7,6 C 6,4 C 74 % 75 % 1013,8 hPa 0,0 l/m 9,1 km/h (2 Bft) S 180 0 min
26.03.2018 21:25 7,2 C 7,6 C 6,4 C 76 % 76 % 1014,8 hPa 0,0 l/m 3,6 km/h (1 Bft) W-NW 295 0 min
26.03.2018 21:30 7,1 C 7,4 C 6,4 C 77 % 77 % 1014,8 hPa 0,0 l/m 7,3 km/h (2 Bft) S 190 0 min
26.03.2018 21:35 7,1 C 7,4 C 6,4 C 77 % 77 % 1014,8 hPa 0,0 l/m 7,9 km/h (2 Bft) SO 135 0 min
26.03.2018 21:40 7,1 C 7,3 C 6,4 C 78 % 76 % 1014,8 hPa 0,0 l/m 3,6 km/h (1 Bft) S 190 0 min
26.03.2018 21:45 7,1 C 7,3 C 6,4 C 76 % 76 % 1014,8 hPa 0,0 l/m 3,6 km/h (1 Bft) S 185 0 min
26.03.2018 21:50 7,1 C 7,3 C 6,2 C 77 % 76 % 1014,8 hPa 0,0 l/m 3,6 km/h (1 Bft) S-SO 165 0 min
26.03.2018 21:55 7,1 C 7,3 C 6,2 C 78 % 76 % 1014,8 hPa 0,0 l/m 1,2 km/h (1 Bft) SW 215 0 min
26.03.2018 22:00 7,0 C 7,3 C 6,2 C 79 % 76 % 1014,8 hPa 0,0 l/m 0,6 km/h (0 Bft) S-SW 210 0 min
26.03.2018 22:05 7,0 C 7,2 C 6,2 C 79 % 77 % 1014,8 hPa 0,0 l/m 0,0 km/h (0 Bft) S 190 0 min
26.03.2018 22:10 7,0 C 7,2 C 6,2 C 79 % 77 % 1013,8 hPa 0,0 l/m 0,0 km/h (0 Bft) S 175 0 min
26.03.2018 22:15 6,9 C 7,1 C 6,2 C 81 % 77 % 1013,8 hPa 0,0 l/m 1,8 km/h (1 Bft) O 100 0 min
26.03.2018 22:20 6,8 C 7,1 C 6,2 C 81 % 77 % 1013,8 hPa 0,0 l/m 0,0 km/h (0 Bft) SO 135 0 min
26.03.2018 22:25 6,7 C 7,0 C 6,2 C 81 % 78 % 1014,8 hPa 0,0 l/m 0,0 km/h (0 Bft) SO 140 0 min
26.03.2018 22:30 6,7 C 6,9 C 6,2 C 81 % 78 % 1014,8 hPa 0,0 l/m 0,0 km/h (0 Bft) SO 140 0 min
26.03.2018 22:35 6,5 C 6,8 C 6,2 C 82 % 80 % 1014,8 hPa 0,0 l/m 2,4 km/h (1 Bft) N-NO 30 0 min
26.03.2018 22:40 6,3 C 6,7 C 6,2 C 83 % 79 % 1014,8 hPa 0,0 l/m 0,0 km/h (0 Bft) W 260 0 min
26.03.2018 22:45 6,1 C 6,4 C 6,2 C 84 % 79 % 1014,8 hPa 0,0 l/m 0,0 km/h (0 Bft) N 0 0 min
26.03.2018 22:50 6,0 C 6,3 C 6,2 C 84 % 80 % 1014,8 hPa 0,0 l/m 0,0 km/h (0 Bft) N 355 0 min
26.03.2018 22:55 6,0 C 6,2 C 6,2 C 85 % 80 % 1014,8 hPa 0,0 l/m 0,0 km/h (0 Bft) N 0 0 min
26.03.2018 23:00 5,8 C 6,0 C 6,2 C 85 % 80 % 1014,8 hPa 0,0 l/m 0,0 km/h (0 Bft) SO 125 0 min
26.03.2018 23:05 5,8 C 5,9 C 6,2 C 85 % 81 % 1014,8 hPa 0,0 l/m 0,0 km/h (0 Bft) N 10 0 min
26.03.2018 23:10 5,5 C 5,8 C 6,2 C 85 % 81 % 1013,8 hPa 0,0 l/m 0,0 km/h (0 Bft) NW 315 0 min
26.03.2018 23:15 5,5 C 5,6 C 6,2 C 86 % 82 % 1013,8 hPa 0,0 l/m 0,0 km/h (0 Bft) NW 320 0 min
26.03.2018 23:20 5,4 C 5,5 C 6,2 C 87 % 82 % 1013,8 hPa 0,0 l/m 0,0 km/h (0 Bft) NW 320 0 min
26.03.2018 23:25 5,3 C 5,4 C 6,2 C 86 % 82 % 1013,8 hPa 0,0 l/m 0,0 km/h (0 Bft) NW 320 0 min
26.03.2018 23:30 5,3 C 5,3 C 6,2 C 87 % 83 % 1013,8 hPa 0,0 l/m 0,0 km/h (0 Bft) W-SW 255 0 min
26.03.2018 23:35 5,4 C 5,1 C 6,2 C 87 % 83 % 1013,9 hPa 0,0 l/m 0,0 km/h (0 Bft) S-SW 205 0 min
26.03.2018 23:40 5,5 C 5,1 C 6,2 C 87 % 83 % 1014,9 hPa 0,0 l/m 0,0 km/h (0 Bft) S-SW 210 0 min
26.03.2018 23:45 5,4 C 5,1 C 6,2 C 87 % 83 % 1014,9 hPa 0,0 l/m 0,0 km/h (0 Bft) W 260 0 min
26.03.2018 23:50 5,4 C 5,0 C 6,2 C 87 % 83 % 1014,9 hPa 0,0 l/m 0,0 km/h (0 Bft) N-NW 330 0 min
26.03.2018 23:55 5,4 C 4,9 C 6,2 C 87 % 83 % 1013,9 hPa 0,0 l/m 0,0 km/h (0 Bft) W-SW 245 0 min
_ Min-Zeit 08:50 08:50 07:20 17:40 17:40 01:25 - 06:30 - - -
Minimum _ 2,6 C 2,8 C 3,5 C 48 % 53 % 1008,8 hPa - 0,0 km/h (0 Bft) - - -
_ Max-Zeit 16:10 17:50 14:30 08:05 09:20 10:55 00:00 16:10 - - 11:25
Maximum _ 11,7 C 11,1 C 7,3 C 96 % 94 % 1014,9 hPa 0,0 l/m 30,9 km/h
W-SW (5 Bft)
- - 8 min
Durchschnitt _ 7,0 C 7,0 C 6,2 C 76 % 76 % 1012,8 hPa #0,0 l/m 7,9 km/h (2 Bft) W-NW - #8:54 h